TimeEDT,TemperatureF,Dew PointF,Humidity,Sea Level PressureIn,VisibilityMPH,Wind Direction,Wind SpeedMPH,Gust SpeedMPH,PrecipitationIn,Events,Conditions,WindDirDegrees,DateUTC
12:15 AM,46.4,44.6,93,29.81,7.0,North,6.9,-,0.05,Rain,Rain,350,2013-04-24 04:15:00
12:35 AM,46.4,44.6,93,29.82,5.0,NW,8.1,-,0.10,Rain,Heavy Rain,320,2013-04-24 04:35:00
12:55 AM,46.4,44.6,93,29.81,7.0,NNW,10.4,-,0.13,Rain,Rain,340,2013-04-24 04:55:00
1:15 AM,46.4,44.6,93,29.80,10.0,NNW,6.9,-,N/A,Rain,Light Rain,340,2013-04-24 05:15:00
1:35 AM,46.4,44.6,93,29.80,10.0,NNW,6.9,-,0.01,Rain,Light Rain,330,2013-04-24 05:35:00
1:55 AM,46.4,44.6,93,29.79,10.0,NNW,8.1,-,0.01,Rain,Rain,340,2013-04-24 05:55:00
2:15 AM,46.4,42.8,87,29.80,10.0,NW,9.2,-,N/A,,Light Drizzle,310,2013-04-24 06:15:00
2:35 AM,44.6,42.8,93,29.77,7.0,NNW,8.1,-,0.01,Rain,Rain,340,2013-04-24 06:35:00
2:55 AM,44.6,42.8,93,29.78,7.0,NNW,10.4,-,0.01,Rain,Rain,330,2013-04-24 06:55:00
3:15 AM,44.6,42.8,93,29.78,10.0,North,9.2,-,0.01,Rain,Rain,350,2013-04-24 07:15:00
3:35 AM,44.6,42.8,93,29.79,10.0,NW,10.4,-,0.01,Rain,Rain,320,2013-04-24 07:35:00
3:55 AM,44.6,42.8,93,29.78,7.0,NNW,11.5,-,0.03,Rain,Rain,330,2013-04-24 07:55:00
4:15 AM,44.6,42.8,93,29.79,10.0,NNW,10.4,-,N/A,Rain,Rain,330,2013-04-24 08:15:00
4:55 AM,44.6,41.0,87,29.80,10.0,NNW,13.8,18.4,0.01,Rain,Light Rain,340,2013-04-24 08:55:00
5:15 AM,42.8,41.0,93,29.81,10.0,NW,10.4,-,N/A,Rain,Light Rain,310,2013-04-24 09:15:00
5:35 AM,42.8,39.2,87,29.82,10.0,NW,10.4,17.3,0.01,Rain,Light Rain,310,2013-04-24 09:35:00
5:55 AM,42.8,39.2,87,29.83,10.0,NW,8.1,-,0.01,,Drizzle,310,2013-04-24 09:55:00
6:15 AM,42.8,39.2,87,29.83,10.0,NNW,6.9,-,N/A,Rain,Light Rain,330,2013-04-24 10:15:00
6:35 AM,41.0,37.4,87,29.83,10.0,NNW,12.7,18.4,N/A,,Overcast,330,2013-04-24 10:35:00
6:55 AM,41.0,37.4,87,29.85,7.0,NNW,11.5,19.6,N/A,,Drizzle,330,2013-04-24 10:55:00
7:15 AM,41.0,37.4,87,29.85,10.0,NNW,12.7,16.1,N/A,Rain,Rain,330,2013-04-24 11:15:00
7:35 AM,39.2,35.6,87,29.85,10.0,North,10.4,-,N/A,,Drizzle,350,2013-04-24 11:35:00
7:55 AM,37.4,35.6,93,29.87,7.0,NNW,13.8,18.4,N/A,,Drizzle,330,2013-04-24 11:55:00
8:15 AM,37.4,33.8,87,29.86,7.0,North,11.5,16.1,N/A,,Drizzle,350,2013-04-24 12:15:00
8:35 AM,37.4,35.6,93,29.87,7.0,North,10.4,-,N/A,,Light Drizzle,350,2013-04-24 12:35:00
8:55 AM,37.4,35.6,93,29.86,4.0,North,8.1,17.3,N/A,,Drizzle,350,2013-04-24 12:55:00
9:15 AM,37.4,35.6,93,29.88,4.0,NNW,11.5,-,N/A,Rain,Rain,340,2013-04-24 13:15:00
9:35 AM,37.4,33.8,87,29.86,10.0,North,11.5,-,N/A,Rain,Light Rain,350,2013-04-24 13:35:00
9:55 AM,37.4,33.8,87,29.87,3.0,NNW,11.5,-,N/A,Rain,Light Rain,330,2013-04-24 13:55:00
10:15 AM,35.6,33.8,93,29.88,3.0,NNW,13.8,17.3,N/A,Rain,Light Rain,330,2013-04-24 14:15:00
10:35 AM,35.6,33.8,93,29.89,2.5,NNW,8.1,-,N/A,Rain,Rain,330,2013-04-24 14:35:00
10:55 AM,35.6,33.8,93,29.90,2.0,NW,9.2,-,N/A,Rain,Rain,320,2013-04-24 14:55:00
11:15 AM,35.6,33.8,93,29.91,2.0,NW,9.2,-,N/A,,Drizzle,320,2013-04-24 15:15:00
11:35 AM,35.6,33.8,93,29.91,1.2,NW,11.5,17.3,N/A,Rain,Rain,320,2013-04-24 15:35:00
11:55 AM,35.6,33.8,93,29.91,1.5,NW,10.4,19.6,N/A,,Light Drizzle,310,2013-04-24 15:55:00
12:15 PM,35.6,33.8,93,29.92,0.8,WNW,10.4,-,N/A,Snow,Light Snow,300,2013-04-24 16:15:00
12:35 PM,35.6,33.8,93,29.94,7.0,WNW,16.1,25.3,N/A,Rain,Light Rain,300,2013-04-24 16:35:00
12:55 PM,37.4,33.8,87,29.95,4.0,WNW,12.7,-,N/A,Rain,Light Rain,300,2013-04-24 16:55:00
1:15 PM,37.4,33.8,87,29.95,5.0,WNW,13.8,19.6,N/A,,Drizzle,300,2013-04-24 17:15:00
1:35 PM,35.6,33.8,93,29.95,5.0,NW,10.4,18.4,N/A,Rain,Light Rain,310,2013-04-24 17:35:00
1:55 PM,37.4,33.8,87,29.97,10.0,WNW,12.7,-,N/A,Rain,Light Rain,300,2013-04-24 17:55:00
2:15 PM,37.4,33.8,87,29.97,10.0,WNW,11.5,19.6,N/A,Rain,Light Rain,300,2013-04-24 18:15:00
2:35 PM,37.4,33.8,87,29.99,10.0,WNW,15.0,20.7,N/A,Rain,Light Rain,290,2013-04-24 18:35:00
2:55 PM,37.4,33.8,87,29.99,7.0,NW,12.7,26.5,N/A,Rain,Light Rain,310,2013-04-24 18:55:00
3:15 PM,39.2,35.6,87,30.00,5.0,WNW,18.4,24.2,N/A,Rain,Light Rain,290,2013-04-24 19:15:00
3:35 PM,39.2,33.8,81,30.01,7.0,WNW,17.3,20.7,N/A,Rain,Light Rain,290,2013-04-24 19:35:00
3:55 PM,41.0,32.0,70,30.01,10.0,West,13.8,26.5,N/A,,Overcast,270,2013-04-24 19:55:00
4:15 PM,41.0,32.0,70,30.01,10.0,West,17.3,25.3,N/A,,Mostly Cloudy,280,2013-04-24 20:15:00
4:35 PM,41.0,32.0,70,30.02,10.0,WNW,15.0,23.0,N/A,,Mostly Cloudy,300,2013-04-24 20:35:00
4:55 PM,42.8,32.0,66,30.03,10.0,West,17.3,21.9,N/A,,Mostly Cloudy,280,2013-04-24 20:55:00
5:15 PM,42.8,30.2,61,30.03,10.0,West,15.0,25.3,N/A,,Mostly Cloudy,270,2013-04-24 21:15:00
5:35 PM,42.8,30.2,61,30.04,10.0,West,16.1,23.0,N/A,,Mostly Cloudy,270,2013-04-24 21:35:00
5:55 PM,42.8,30.2,61,30.05,10.0,West,16.1,21.9,N/A,,Mostly Cloudy,280,2013-04-24 21:55:00
6:15 PM,42.8,30.2,61,30.06,10.0,West,17.3,-,N/A,,Mostly Cloudy,280,2013-04-24 22:15:00
6:35 PM,42.8,28.4,57,30.07,10.0,West,19.6,24.2,N/A,,Mostly Cloudy,280,2013-04-24 22:35:00
6:55 PM,42.8,28.4,57,30.08,10.0,WNW,16.1,23.0,N/A,,Scattered Clouds,290,2013-04-24 22:55:00
7:15 PM,42.8,26.6,53,30.08,10.0,West,11.5,-,N/A,,Clear,270,2013-04-24 23:15:00
7:35 PM,41.0,26.6,57,30.09,10.0,West,12.7,23.0,N/A,,Clear,280,2013-04-24 23:35:00
7:55 PM,41.0,23.0,49,30.10,10.0,WNW,13.8,-,N/A,,Clear,290,2013-04-24 23:55:00
8:15 PM,41.0,23.0,49,30.11,10.0,West,8.1,-,N/A,,Clear,280,2013-04-25 00:15:00
8:35 PM,37.4,23.0,56,30.12,10.0,West,4.6,-,N/A,,Clear,270,2013-04-25 00:35:00
8:55 PM,37.4,24.8,60,30.13,10.0,WSW,3.5,-,N/A,,Clear,250,2013-04-25 00:55:00
9:15 PM,37.4,23.0,56,30.15,10.0,SSW,3.5,-,N/A,,Clear,200,2013-04-25 01:15:00
9:35 PM,35.6,26.6,70,30.15,10.0,Calm,Calm,-,N/A,,Clear,0,2013-04-25 01:35:00
9:55 PM,37.4,23.0,56,30.16,10.0,SSW,4.6,-,N/A,,Clear,200,2013-04-25 01:55:00
11:15 PM,35.6,28.4,75,30.18,10.0,Calm,Calm,-,N/A,,Clear,0,2013-04-25 03:15:00
11:35 PM,33.8,28.4,81,30.17,10.0,Calm,Calm,-,N/A,,Clear,0,2013-04-25 03:35:00
11:55 PM,35.6,28.4,75,30.17,10.0,SSW,3.5,-,N/A,,Clear,200,2013-04-25 03:55:00